| time (UTC) | temp F | wind direction | speed MPH | gust MPH | rain 1hr in | rain 24hr in | rain mn in | humidity % | barometer mb |
| 20260508211037 | 76 | 0 | 0.0 | 10.0 | 0.00 | 0.83 | 0.83 | 84 | 1010.4 |
| 20260508210537 | 75 | 107 | 1.0 | 10.0 | 0.00 | 0.83 | 0.83 | 84 | 1010.5 |
| 20260508210050 | 75 | 133 | 1.0 | 8.0 | 0.00 | 0.83 | 0.83 | 85 | 1010.6 |
| 20260508205536 | 75 | 127 | 1.0 | 8.0 | 0.00 | 0.83 | 0.83 | 84 | 1010.5 |
| 20260508205037 | 75 | 132 | 2.0 | 8.0 | 0.00 | 0.83 | 0.83 | 84 | 1010.6 |
| 20260508204552 | 75 | 140 | 3.0 | 6.0 | 0.00 | 0.83 | 0.83 | 85 | 1010.7 |
| 20260508204039 | 75 | 97 | 2.0 | 9.0 | 0.00 | 0.83 | 0.83 | 84 | 1010.7 |
| 20260508203536 | 75 | 57 | 3.0 | 9.0 | 0.00 | 0.83 | 0.83 | 85 | 1010.8 |
| 20260508203053 | 75 | 70 | 3.0 | 7.0 | 0.00 | 0.83 | 0.83 | 84 | 1010.9 |
| 20260508202538 | 75 | 111 | 3.0 | 7.0 | 0.00 | 0.83 | 0.83 | 84 | 1010.9 |
| 20260508202037 | 74 | 117 | 0.0 | 6.0 | 0.00 | 0.83 | 0.83 | 85 | 1011.1 |
| 20260508201547 | 74 | 150 | 2.0 | 5.0 | 0.00 | 0.83 | 0.83 | 85 | 1011.1 |
| 20260508201036 | 74 | 61 | 0.0 | 5.0 | 0.00 | 0.83 | 0.83 | 86 | 1011.3 |
| 20260508200540 | 74 | 0 | 1.0 | 5.0 | 0.00 | 0.83 | 0.83 | 86 | 1011.3 |
| 20260508200104 | 73 | 109 | 3.0 | 5.0 | 0.00 | 0.83 | 0.83 | 86 | 1011.4 |
| 20260508195539 | 73 | 5 | 2.0 | 4.0 | 0.00 | 0.83 | 0.83 | 86 | 1011.5 |
| 20260508195041 | 73 | 34 | 2.0 | 5.0 | 0.00 | 0.83 | 0.83 | 86 | 1011.8 |
| 20260508194553 | 73 | 74 | 2.0 | 5.0 | 0.00 | 0.83 | 0.83 | 86 | 1011.8 |
| 20260508194038 | 73 | 65 | 2.0 | 5.0 | 0.00 | 0.83 | 0.83 | 86 | 1011.7 |
| 20260508193540 | 73 | 0 | 0.0 | 4.0 | 0.00 | 0.83 | 0.83 | 87 | 1011.9 |
| 20260508193054 | 72 | 44 | 1.0 | 5.0 | 0.00 | 0.83 | 0.83 | 87 | 1012.0 |
| 20260508192540 | 72 | 0 | 3.0 | 6.0 | 0.00 | 0.83 | 0.83 | 87 | 1012.0 |
| 20260508192037 | 72 | 355 | 0.0 | 6.0 | 0.00 | 0.83 | 0.83 | 87 | 1012.1 |
| 20260508191552 | 72 | 103 | 1.0 | 5.0 | 0.00 | 0.83 | 0.83 | 88 | 1012.2 |
| 20260508191039 | 71 | 0 | 0.0 | 5.0 | 0.00 | 0.83 | 0.83 | 88 | 1012.2 |
| 20260508190540 | 71 | 13 | 3.0 | 5.0 | 0.00 | 0.83 | 0.83 | 88 | 1012.2 |
| 20260508190052 | 71 | 355 | 2.0 | 5.0 | 0.00 | 0.83 | 0.83 | 89 | 1012.3 |
| 20260508185540 | 71 | 103 | 1.0 | 5.0 | 0.00 | 0.83 | 0.83 | 90 | 1012.3 |
| 20260508185040 | 70 | 92 | 1.0 | 6.0 | 0.00 | 0.83 | 0.83 | 90 | 1012.2 |
| 20260508184552 | 70 | 32 | 3.0 | 6.0 | 0.00 | 0.83 | 0.83 | 90 | 1012.4 |
| 20260508184039 | 70 | 94 | 2.0 | 7.0 | 0.00 | 0.83 | 0.83 | 90 | 1012.4 |
| 20260508183539 | 70 | 101 | 3.0 | 8.0 | 0.00 | 0.83 | 0.83 | 90 | 1012.5 |
| 20260508183049 | 69 | 33 | 4.0 | 8.0 | 0.00 | 0.83 | 0.83 | 91 | 1012.5 |
| 20260508182538 | 69 | 55 | 3.0 | 9.0 | 0.00 | 0.83 | 0.83 | 91 | 1012.5 |
| 20260508182039 | 69 | 38 | 5.0 | 9.0 | 0.00 | 0.83 | 0.83 | 91 | 1012.7 |
| 20260508181552 | 69 | 48 | 4.0 | 8.0 | 0.00 | 0.83 | 0.83 | 91 | 1012.8 |
| 20260508181039 | 69 | 81 | 2.0 | 8.0 | 0.00 | 0.83 | 0.83 | 91 | 1013.0 |
| 20260508180537 | 69 | 35 | 2.0 | 7.0 | 0.00 | 0.83 | 0.83 | 92 | 1013.0 |
| 20260508180053 | 68 | 58 | 3.0 | 8.0 | 0.00 | 0.83 | 0.83 | 92 | 1013.1 |
| 20260508175537 | 68 | 83 | 4.0 | 10.0 | 0.00 | 0.83 | 0.83 | 93 | 1013.0 |
| 20260508175036 | 68 | 0 | 4.0 | 10.0 | 0.00 | 0.83 | 0.83 | 93 | 1013.0 |
| 20260508174600 | 67 | 23 | 6.0 | 10.0 | 0.00 | 0.83 | 0.83 | 92 | 1013.1 |
| 20260508174038 | 67 | 34 | 5.0 | 9.0 | 0.00 | 0.83 | 0.83 | 92 | 1013.1 |
| 20260508173537 | 67 | 30 | 4.0 | 11.0 | 0.00 | 0.83 | 0.83 | 93 | 1013.2 |
| 20260508173048 | 67 | 35 | 5.0 | 11.0 | 0.00 | 0.83 | 0.83 | 93 | 1013.2 |
| 20260508172539 | 67 | 39 | 8.0 | 11.0 | 0.00 | 0.83 | 0.83 | 93 | 1013.3 |
| 20260508172039 | 67 | 41 | 5.0 | 10.0 | 0.00 | 0.83 | 0.83 | 93 | 1013.4 |
| 20260508171550 | 67 | 34 | 6.0 | 10.0 | 0.00 | 0.83 | 0.83 | 93 | 1013.4 |
| 20260508171039 | 67 | 49 | 3.0 | 8.0 | 0.00 | 0.83 | 0.83 | 93 | 1013.4 |
| 20260508170537 | 67 | 34 | 4.0 | 9.0 | 0.00 | 0.83 | 0.83 | 93 | 1013.6 |
| 20260508170052 | 67 | 77 | 4.0 | 9.0 | 0.00 | 0.83 | 0.83 | 93 | 1013.7 |
| 20260508165536 | 67 | 24 | 5.0 | 9.0 | 0.00 | 0.83 | 0.83 | 93 | 1013.6 |
| 20260508165037 | 66 | 11 | 4.0 | 8.0 | 0.00 | 0.83 | 0.83 | 94 | 1013.7 |
| 20260508164547 | 66 | 82 | 3.0 | 6.0 | 0.00 | 0.83 | 0.83 | 93 | 1013.7 |
| 20260508164037 | 66 | 48 | 3.0 | 6.0 | 0.00 | 0.83 | 0.83 | 93 | 1013.6 |
| 20260508163536 | 66 | 32 | 2.0 | 5.0 | 0.00 | 0.83 | 0.83 | 93 | 1013.8 |
| 20260508163048 | 66 | 63 | 3.0 | 5.0 | 0.00 | 0.83 | 0.83 | 93 | 1013.9 |
| 20260508162537 | 66 | 44 | 3.0 | 5.0 | 0.00 | 0.83 | 0.83 | 93 | 1013.8 |
| 20260508162036 | 66 | 63 | 2.0 | 6.0 | 0.00 | 0.83 | 0.83 | 94 | 1013.8 |
| 20260508161551 | 66 | 47 | 2.0 | 6.0 | 0.00 | 0.83 | 0.83 | 94 | 1013.9 |
| 20260508161037 | 66 | 32 | 2.0 | 9.0 | 0.00 | 0.83 | 0.83 | 94 | 1013.8 |
| 20260508160536 | 65 | 38 | 3.0 | 9.0 | 0.00 | 0.83 | 0.83 | 94 | 1013.8 |
| 20260508160053 | 65 | 69 | 3.0 | 8.0 | 0.00 | 0.83 | 0.83 | 94 | 1013.8 |
| 20260508155537 | 65 | 36 | 2.0 | 8.0 | 0.00 | 0.83 | 0.83 | 95 | 1013.9 |
| 20260508155036 | 65 | 62 | 4.0 | 8.0 | 0.00 | 0.83 | 0.83 | 94 | 1014.0 |
| 20260508154553 | 65 | 49 | 2.0 | 8.0 | 0.00 | 0.83 | 0.83 | 95 | 1014.0 |
| 20260508154036 | 64 | 49 | 2.0 | 8.0 | 0.00 | 0.83 | 0.83 | 95 | 1014.0 |
| 20260508153537 | 64 | 34 | 5.0 | 8.0 | 0.00 | 0.83 | 0.83 | 95 | 1014.1 |
| 20260508153050 | 64 | 19 | 4.0 | 7.0 | 0.00 | 0.83 | 0.83 | 95 | 1014.1 |
| 20260508152536 | 63 | 72 | 1.0 | 4.0 | 0.00 | 0.83 | 0.83 | 95 | 1014.5 |
| 20260508152036 | 63 | 72 | 2.0 | 4.0 | 0.00 | 0.83 | 0.83 | 95 | 1014.5 |
| 20260508151558 | 63 | 72 | 2.0 | 4.0 | 0.00 | 0.83 | 0.83 | 95 | 1014.6 |
| 20260508151036 | 63 | 0 | 0.0 | 3.0 | 0.00 | 0.83 | 0.83 | 94 | 1014.7 |
| 20260508150537 | 63 | 102 | 1.0 | 3.0 | 0.00 | 0.83 | 0.83 | 95 | 1014.6 |
| 20260508150049 | 63 | 102 | 0.0 | 4.0 | 0.00 | 0.83 | 0.83 | 95 | 1014.7 |
| 20260508145535 | 63 | 102 | 1.0 | 4.0 | 0.01 | 0.83 | 0.83 | 95 | 1014.8 |
| 20260508145037 | 63 | 0 | 0.0 | 6.0 | 0.01 | 0.83 | 0.83 | 95 | 1014.7 |
| 20260508144550 | 62 | 102 | 0.0 | 6.0 | 0.03 | 0.83 | 0.83 | 95 | 1014.6 |
| 20260508144037 | 63 | 75 | 2.0 | 6.0 | 0.03 | 0.83 | 0.83 | 95 | 1014.6 |
| 20260508143537 | 62 | 115 | 1.0 | 6.0 | 0.03 | 0.83 | 0.83 | 95 | 1014.7 |
| 20260508143052 | 62 | 123 | 2.0 | 7.0 | 0.03 | 0.83 | 0.83 | 95 | 1014.6 |
| 20260508142534 | 62 | 123 | 2.0 | 7.0 | 0.03 | 0.83 | 0.83 | 95 | 1014.7 |
| 20260508142037 | 62 | 104 | 3.0 | 7.0 | 0.03 | 0.83 | 0.83 | 95 | 1014.7 |
| 20260508141552 | 62 | 169 | 2.0 | 7.0 | 0.03 | 0.83 | 0.83 | 94 | 1014.7 |
| 20260508141036 | 61 | 115 | 2.0 | 6.0 | 0.03 | 0.83 | 0.83 | 94 | 1014.7 |
| 20260508140536 | 61 | 94 | 2.0 | 6.0 | 0.03 | 0.83 | 0.83 | 94 | 1014.7 |
| 20260508140057 | 61 | 0 | 1.0 | 6.0 | 0.03 | 0.83 | 0.83 | 94 | 1014.7 |
| 20260508135538 | 61 | 105 | 2.0 | 6.0 | 0.02 | 0.82 | 0.82 | 94 | 1014.8 |
| 20260508135037 | 61 | 153 | 1.0 | 6.0 | 0.02 | 0.82 | 0.82 | 94 | 1014.7 |
| 20260508134552 | 61 | 153 | 1.0 | 6.0 | 0.00 | 0.80 | 0.80 | 94 | 1015.0 |
| 20260508134037 | 61 | 153 | 2.0 | 6.0 | 0.00 | 0.80 | 0.80 | 94 | 1014.9 |
| 20260508133537 | 61 | 88 | 1.0 | 6.0 | 0.00 | 0.80 | 0.80 | 94 | 1014.8 |
| 20260508133055 | 61 | 121 | 3.0 | 8.0 | 0.00 | 0.80 | 0.80 | 94 | 1014.6 |
| 20260508132537 | 61 | 49 | 2.0 | 8.0 | 0.01 | 0.80 | 0.80 | 94 | 1014.6 |
| 20260508132036 | 61 | 49 | 3.0 | 8.0 | 0.02 | 0.80 | 0.80 | 94 | 1014.5 |
| 20260508131550 | 61 | 67 | 2.0 | 9.0 | 0.07 | 0.80 | 0.80 | 94 | 1014.6 |
| 20260508131037 | 61 | 107 | 3.0 | 9.0 | 0.12 | 0.80 | 0.80 | 94 | 1014.5 |
| 20260508130539 | 61 | 108 | 4.0 | 8.0 | 0.16 | 0.80 | 0.80 | 94 | 1014.6 |
| 20260508125537 | 61 | 88 | 1.0 | 8.0 | 0.18 | 0.80 | 0.80 | 93 | 1014.5 |
| 20260508125037 | 61 | 121 | 3.0 | 8.0 | 0.18 | 0.80 | 0.80 | 93 | 1014.7 |
| 20260508124553 | 61 | 146 | 4.0 | 8.0 | 0.20 | 0.80 | 0.80 | 93 | 1014.7 |
| 20260508124041 | 60 | 103 | 2.0 | 8.0 | 0.26 | 0.80 | 0.80 | 93 | 1014.4 |
| 20260508123536 | 60 | 39 | 4.0 | 9.0 | 0.44 | 0.80 | 0.80 | 93 | 1014.2 |
| 20260508123055 | 61 | 120 | 3.0 | 9.0 | 0.66 | 0.80 | 0.80 | 93 | 1014.0 |
| 20260508122536 | 61 | 120 | 3.0 | 6.0 | 0.77 | 0.79 | 0.79 | 93 | 1014.2 |
| 20260508122036 | 61 | 0 | 1.0 | 4.0 | 0.77 | 0.78 | 0.78 | 92 | 1014.9 |
| 20260508121546 | 61 | 0 | 0.0 | 8.0 | 0.72 | 0.72 | 0.72 | 92 | 1015.2 |
| 20260508121037 | 61 | 101 | 3.0 | 10.0 | 0.67 | 0.67 | 0.67 | 92 | 1015.3 |
| 20260508120537 | 61 | 312 | 4.0 | 10.0 | 0.64 | 0.64 | 0.64 | 92 | 1015.4 |
| 20260508120050 | 61 | 331 | 7.0 | 10.0 | 0.63 | 0.63 | 0.63 | 92 | 1015.1 |
| 20260508115536 | 61 | 5 | 4.0 | 7.0 | 0.62 | 0.62 | 0.62 | 92 | 1014.9 |
| 20260508115039 | 61 | 43 | 3.0 | 5.0 | 0.62 | 0.62 | 0.62 | 91 | 1015.0 |
| 20260508114552 | 61 | 302 | 1.0 | 4.0 | 0.60 | 0.60 | 0.60 | 91 | 1015.0 |
| 20260508114039 | 61 | 302 | 2.0 | 6.0 | 0.52 | 0.52 | 0.52 | 91 | 1015.3 |
| 20260508113540 | 61 | 13 | 4.0 | 10.0 | 0.34 | 0.34 | 0.34 | 90 | 1015.0 |
| 20260508113105 | 61 | 311 | 3.0 | 10.0 | 0.13 | 0.13 | 0.13 | 90 | 1015.1 |
| 20260508112540 | 62 | 269 | 3.0 | 8.0 | 0.02 | 0.02 | 0.02 | 89 | 1015.0 |
| 20260508112037 | 62 | 322 | 4.0 | 7.0 | 0.01 | 0.01 | 0.01 | 89 | 1014.6 |
| 20260508111551 | 62 | 10 | 4.0 | 7.0 | 0.00 | 0.00 | 0.00 | 88 | 1013.9 |
| 20260508111036 | 62 | 13 | 3.0 | 8.0 | 0.00 | 0.00 | 0.00 | 88 | 1014.2 |
| 20260508110537 | 62 | 24 | 4.0 | 8.0 | 0.00 | 0.00 | 0.00 | 88 | 1013.8 |
| 20260508110048 | 62 | 35 | 3.0 | 6.0 | 0.00 | 0.00 | 0.00 | 87 | 1014.0 |
| 20260508105537 | 62 | 35 | 3.0 | 5.0 | 0.00 | 0.00 | 0.00 | 87 | 1014.3 |
| 20260508105039 | 62 | 35 | 2.0 | 5.0 | 0.00 | 0.00 | 0.00 | 87 | 1014.4 |
| 20260508104552 | 62 | 35 | 4.0 | 5.0 | 0.00 | 0.00 | 0.00 | 87 | 1014.5 |
| 20260508104037 | 62 | 15 | 2.0 | 4.0 | 0.00 | 0.00 | 0.00 | 87 | 1014.8 |
| 20260508103537 | 62 | 15 | 3.0 | 4.0 | 0.00 | 0.00 | 0.00 | 87 | 1015.0 |
| 20260508103050 | 62 | 15 | 2.0 | 5.0 | 0.00 | 0.00 | 0.00 | 86 | 1015.0 |
| 20260508102539 | 62 | 38 | 2.0 | 5.0 | 0.00 | 0.00 | 0.00 | 86 | 1014.7 |
| 20260508102040 | 62 | 38 | 2.0 | 4.0 | 0.00 | 0.00 | 0.00 | 86 | 1014.7 |
| 20260508101549 | 62 | 38 | 1.0 | 3.0 | 0.00 | 0.00 | 0.00 | 86 | 1014.9 |
| 20260508101036 | 62 | 38 | 1.0 | 3.0 | 0.00 | 0.00 | 0.00 | 86 | 1015.0 |
| 20260508100538 | 62 | 0 | 1.0 | 3.0 | 0.00 | 0.00 | 0.00 | 86 | 1015.0 |
| 20260508100051 | 62 | 38 | 1.0 | 3.0 | 0.00 | 0.00 | 0.00 | 86 | 1014.9 |
| 20260508095536 | 62 | 0 | 0.0 | 4.0 | 0.00 | 0.00 | 0.00 | 86 | 1014.9 |
| 20260508095037 | 62 | 0 | 0.0 | 4.0 | 0.00 | 0.00 | 0.00 | 86 | 1014.6 |
| 20260508094549 | 62 | 38 | 2.0 | 4.0 | 0.00 | 0.00 | 0.00 | 87 | 1014.5 |
| 20260508094037 | 62 | 38 | 2.0 | 5.0 | 0.00 | 0.00 | 0.00 | 86 | 1014.5 |
| 20260508093537 | 62 | 38 | 2.0 | 5.0 | 0.00 | 0.00 | 0.00 | 86 | 1014.5 |
| 20260508093052 | 62 | 38 | 2.0 | 4.0 | 0.00 | 0.00 | 0.00 | 87 | 1014.5 |
| 20260508092536 | 62 | 38 | 1.0 | 5.0 | 0.00 | 0.00 | 0.00 | 87 | 1014.7 |
| 20260508092037 | 62 | 82 | 2.0 | 5.0 | 0.00 | 0.00 | 0.00 | 87 | 1014.5 |
| 20260508091557 | 62 | 24 | 3.0 | 5.0 | 0.00 | 0.00 | 0.00 | 87 | 1014.4 |
| 20260508091037 | 62 | 24 | 2.0 | 5.0 | 0.00 | 0.00 | 0.00 | 87 | 1014.6 |
| 20260508090535 | 62 | 24 | 2.0 | 4.0 | 0.00 | 0.00 | 0.00 | 87 | 1014.6 |
| 20260508090058 | 62 | 24 | 1.0 | 4.0 | 0.00 | 0.00 | 0.00 | 87 | 1014.6 |
| 20260508085538 | 62 | 24 | 1.0 | 4.0 | 0.00 | 0.00 | 0.00 | 87 | 1014.3 |
| 20260508085034 | 62 | 24 | 1.0 | 4.0 | 0.00 | 0.00 | 0.00 | 87 | 1014.7 |
| 20260508084548 | 61 | 24 | 1.0 | 4.0 | 0.00 | 0.00 | 0.00 | 87 | 1014.5 |
| 20260508084036 | 61 | 24 | 2.0 | 4.0 | 0.00 | 0.00 | 0.00 | 87 | 1014.5 |
| 20260508083535 | 61 | 24 | 1.0 | 4.0 | 0.00 | 0.00 | 0.00 | 88 | 1014.5 |
| 20260508083047 | 61 | 0 | 0.0 | 2.0 | 0.00 | 0.00 | 0.00 | 88 | 1014.8 |
| 20260508082537 | 61 | 0 | 0.0 | 4.0 | 0.00 | 0.00 | 0.00 | 88 | 1014.9 |
| 20260508082035 | 61 | 0 | 1.0 | 4.0 | 0.00 | 0.00 | 0.00 | 88 | 1014.9 |
| 20260508081552 | 61 | 24 | 2.0 | 4.0 | 0.00 | 0.00 | 0.00 | 88 | 1014.8 |
| 20260508081035 | 61 | 24 | 1.0 | 4.0 | 0.00 | 0.00 | 0.00 | 88 | 1014.9 |
| 20260508080535 | 61 | 24 | 2.0 | 5.0 | 0.00 | 0.00 | 0.00 | 88 | 1015.1 |
| 20260508080050 | 61 | 24 | 2.0 | 5.0 | 0.00 | 0.00 | 0.00 | 88 | 1015.0 |
| 20260508075535 | 61 | 24 | 2.0 | 5.0 | 0.00 | 0.00 | 0.00 | 88 | 1014.8 |
| 20260508075038 | 61 | 24 | 2.0 | 5.0 | 0.00 | 0.00 | 0.00 | 88 | 1014.9 |
| 20260508074552 | 61 | 24 | 3.0 | 5.0 | 0.00 | 0.00 | 0.00 | 88 | 1015.1 |
| 20260508074035 | 61 | 24 | 2.0 | 4.0 | 0.00 | 0.00 | 0.00 | 88 | 1015.1 |
| 20260508073535 | 61 | 24 | 2.0 | 4.0 | 0.00 | 0.00 | 0.00 | 88 | 1015.1 |
| 20260508073059 | 61 | 24 | 0.0 | 3.0 | 0.00 | 0.00 | 0.00 | 88 | 1015.2 |
| 20260508072535 | 61 | 0 | 0.0 | 3.0 | 0.00 | 0.00 | 0.00 | 88 | 1015.2 |
| 20260508072037 | 61 | 0 | 0.0 | 3.0 | 0.00 | 0.00 | 0.00 | 88 | 1015.3 |
| 20260508071559 | 60 | 24 | 1.0 | 5.0 | 0.00 | 0.00 | 0.00 | 88 | 1015.3 |
| 20260508071040 | 60 | 24 | 1.0 | 5.0 | 0.00 | 0.00 | 0.00 | 88 | 1015.1 |
| 20260508070538 | 60 | 42 | 2.0 | 5.0 | 0.00 | 0.00 | 0.00 | 88 | 1015.0 |
| 20260508070100 | 60 | 9 | 2.0 | 5.0 | 0.00 | 0.00 | 0.00 | 88 | 1015.1 |
| 20260508065540 | 60 | 9 | 2.0 | 5.0 | 0.00 | 0.00 | 0.00 | 88 | 1015.3 |
| 20260508065038 | 60 | 42 | 1.0 | 4.0 | 0.00 | 0.00 | 0.00 | 88 | 1014.9 |
| 20260508064550 | 61 | 101 | 2.0 | 6.0 | 0.00 | 0.00 | 0.00 | 88 | 1014.8 |
| 20260508064039 | 60 | 332 | 2.0 | 7.0 | 0.00 | 0.00 | 0.00 | 88 | 1015.5 |
| 20260508063539 | 60 | 351 | 4.0 | 7.0 | 0.00 | 0.00 | 0.00 | 88 | 1015.8 |
| 20260508063049 | 60 | 348 | 2.0 | 6.0 | 0.00 | 0.00 | 0.00 | 88 | 1015.5 |
| 20260508062538 | 60 | 53 | 3.0 | 6.0 | 0.00 | 0.00 | 0.00 | 88 | 1015.3 |
| 20260508062038 | 60 | 33 | 2.0 | 4.0 | 0.00 | 0.00 | 0.00 | 88 | 1015.2 |
| 20260508061548 | 60 | 323 | 2.0 | 3.0 | 0.00 | 0.00 | 0.00 | 87 | 1015.4 |
| 20260508061038 | 61 | 323 | 1.0 | 3.0 | 0.00 | 0.00 | 0.00 | 87 | 1015.6 |
| 20260508060537 | 61 | 323 | 1.0 | 5.0 | 0.00 | 0.00 | 0.00 | 87 | 1015.5 |
| 20260508060051 | 61 | 323 | 1.0 | 5.0 | 0.00 | 0.00 | 0.00 | 87 | 1015.7 |
| 20260508055537 | 61 | 323 | 2.0 | 5.0 | 0.00 | 0.00 | 0.00 | 87 | 1015.6 |
| 20260508055036 | 61 | 63 | 2.0 | 4.0 | 0.00 | 0.00 | 0.00 | 87 | 1014.8 |
| 20260508054600 | 61 | 18 | 2.0 | 5.0 | 0.00 | 0.00 | 0.00 | 86 | 1015.2 |
| 20260508054038 | 61 | 18 | 3.0 | 5.0 | 0.00 | 0.00 | 0.00 | 86 | 1015.3 |
| 20260508053537 | 61 | 18 | 2.0 | 7.0 | 0.00 | 0.00 | 0.00 | 86 | 1015.2 |
| 20260508053053 | 61 | 5 | 3.0 | 7.0 | 0.00 | 0.00 | 0.00 | 86 | 1015.6 |
| 20260508052537 | 61 | 24 | 2.0 | 6.0 | 0.00 | 0.00 | 0.00 | 86 | 1015.3 |
| 20260508052040 | 61 | 108 | 3.0 | 7.0 | 0.00 | 0.00 | 0.00 | 86 | 1015.2 |
| 20260508051548 | 61 | 360 | 4.0 | 7.0 | 0.00 | 0.00 | 0.00 | 86 | 1015.6 |
| 20260508051037 | 61 | 355 | 3.0 | 6.0 | 0.00 | 0.00 | 0.00 | 87 | 1015.7 |
| 20260508050538 | 61 | 355 | 3.0 | 6.0 | 0.00 | 0.00 | 0.00 | 87 | 1015.9 |
| 20260508050052 | 61 | 355 | 4.0 | 5.0 | 0.00 | 0.00 | 0.00 | 87 | 1015.8 |
| 20260508045540 | 61 | 32 | 1.0 | 4.0 | 0.00 | 0.00 | 0.00 | 87 | 1015.1 |
| 20260508045039 | 61 | 105 | 1.0 | 5.0 | 0.00 | 0.00 | 0.00 | 87 | 1015.1 |
| 20260508044556 | 61 | 40 | 2.0 | 5.0 | 0.00 | 0.00 | 0.00 | 87 | 1015.5 |
| 20260508044038 | 61 | 55 | 3.0 | 8.0 | 0.00 | 0.00 | 0.00 | 87 | 1015.7 |
| 20260508043539 | 61 | 12 | 3.0 | 8.0 | 0.00 | 0.00 | 0.00 | 87 | 1015.9 |
| 20260508043049 | 61 | 355 | 4.0 | 6.0 | 0.00 | 0.00 | 0.00 | 87 | 1016.0 |
| 20260508042536 | 61 | 15 | 3.0 | 6.0 | 0.00 | 0.00 | 0.00 | 87 | 1015.7 |
| 20260508042037 | 61 | 35 | 3.0 | 6.0 | 0.00 | 0.00 | 0.00 | 87 | 1015.5 |
| 20260508041547 | 61 | 73 | 3.0 | 6.0 | 0.00 | 0.00 | 0.00 | 87 | 1015.3 |
| 20260508041037 | 61 | 5 | 4.0 | 6.0 | 0.00 | 0.00 | 0.00 | 87 | 1015.6 |
| 20260508040537 | 61 | 36 | 2.0 | 5.0 | 0.00 | 0.00 | 0.00 | 87 | 1015.6 |
| 20260508040045 | 61 | 13 | 2.0 | 6.0 | 0.00 | 0.00 | 0.00 | 86 | 1015.5 |
| 20260508035537 | 61 | 41 | 2.0 | 6.0 | 0.00 | 0.00 | 0.00 | 86 | 1015.3 |
| 20260508035040 | 61 | 41 | 3.0 | 5.0 | 0.00 | 0.00 | 0.00 | 86 | 1015.0 |
| 20260508034544 | 61 | 360 | 2.0 | 4.0 | 0.00 | 0.00 | 0.00 | 86 | 1015.2 |
| 20260508034036 | 61 | 360 | 1.0 | 4.0 | 0.00 | 0.00 | 0.00 | 86 | 1015.4 |
| 20260508033536 | 61 | 360 | 2.0 | 6.0 | 0.00 | 0.00 | 0.00 | 86 | 1015.5 |
| 20260508033111 | 61 | 360 | 2.0 | 6.0 | 0.00 | 0.00 | 0.00 | 86 | 1015.6 |
| 20260508032537 | 62 | 328 | 4.0 | 6.0 | 0.00 | 0.00 | 0.00 | 86 | 1015.5 |
| 20260508032037 | 62 | 349 | 1.0 | 4.0 | 0.00 | 0.00 | 0.00 | 86 | 1015.2 |
| 20260508031549 | 62 | 349 | 1.0 | 3.0 | 0.00 | 0.00 | 0.00 | 86 | 1014.9 |
| 20260508031037 | 62 | 0 | 0.0 | 3.0 | 0.00 | 0.00 | 0.00 | 86 | 1015.0 |
| 20260508030537 | 62 | 349 | 1.0 | 3.0 | 0.00 | 0.00 | 0.00 | 86 | 1015.4 |
| 20260508030100 | 62 | 349 | 0.0 | 4.0 | 0.00 | 0.00 | 0.00 | 86 | 1015.5 |
| 20260508025537 | 62 | 0 | 1.0 | 5.0 | 0.00 | 0.00 | 0.00 | 85 | 1015.6 |
| 20260508025037 | 62 | 5 | 2.0 | 5.0 | 0.00 | 0.00 | 0.00 | 85 | 1015.7 |
| 20260508024550 | 62 | 51 | 2.0 | 7.0 | 0.00 | 0.00 | 0.00 | 85 | 1015.3 |
| 20260508024037 | 62 | 355 | 2.0 | 7.0 | 0.00 | 0.00 | 0.00 | 85 | 1015.4 |
| 20260508023537 | 62 | 112 | 3.0 | 7.0 | 0.00 | 0.00 | 0.00 | 85 | 1015.2 |
| 20260508023047 | 62 | 113 | 3.0 | 6.0 | 0.00 | 0.00 | 0.00 | 85 | 1015.0 |
| 20260508022537 | 62 | 113 | 2.0 | 4.0 | 0.00 | 0.00 | 0.00 | 85 | 1014.8 |
| 20260508022037 | 62 | 0 | 0.0 | 3.0 | 0.00 | 0.00 | 0.00 | 85 | 1014.8 |
| 20260508021547 | 62 | 0 | 0.0 | 3.0 | 0.00 | 0.00 | 0.00 | 85 | 1014.8 |
| 20260508021039 | 62 | 115 | 0.0 | 3.0 | 0.00 | 0.00 | 0.00 | 85 | 1014.9 |
| 20260508020537 | 62 | 0 | 0.0 | 3.0 | 0.00 | 0.00 | 0.00 | 85 | 1014.9 |
| 20260508015537 | 62 | 138 | 0.0 | 4.0 | 0.00 | 0.00 | 0.00 | 85 | 1014.7 |
| 20260508015036 | 62 | 132 | 1.0 | 4.0 | 0.00 | 0.00 | 0.00 | 85 | 1014.9 |
| 20260508014555 | 62 | 0 | 0.0 | 0.0 | 0.00 | 0.00 | 0.00 | 84 | 1015.2 |
| 20260508014036 | 63 | 0 | 0.0 | 3.0 | 0.00 | 0.00 | 0.00 | 85 | 1015.4 |
| 20260508013537 | 63 | 0 | 1.0 | 4.0 | 0.00 | 0.00 | 0.00 | 84 | 1015.5 |
| 20260508013054 | 63 | 0 | 0.0 | 5.0 | 0.00 | 0.00 | 0.00 | 84 | 1015.3 |
| 20260508012537 | 63 | 46 | 2.0 | 5.0 | 0.00 | 0.00 | 0.00 | 84 | 1015.1 |
| 20260508012037 | 63 | 13 | 3.0 | 5.0 | 0.00 | 0.00 | 0.00 | 84 | 1015.1 |
| 20260508011556 | 63 | 44 | 3.0 | 5.0 | 0.00 | 0.00 | 0.00 | 83 | 1015.2 |
| 20260508011036 | 63 | 350 | 3.0 | 5.0 | 0.00 | 0.00 | 0.00 | 83 | 1015.5 |
| 20260508010536 | 63 | 40 | 3.0 | 5.0 | 0.00 | 0.00 | 0.00 | 82 | 1015.7 |
| 20260508010104 | 63 | 40 | 3.0 | 8.0 | 0.00 | 0.00 | 0.00 | 82 | 1015.5 |
| 20260508005537 | 64 | 40 | 3.0 | 8.0 | 0.00 | 0.00 | 0.00 | 82 | 1015.4 |
| 20260508005037 | 64 | 18 | 4.0 | 8.0 | 0.00 | 0.00 | 0.00 | 81 | 1015.8 |
| 20260508004550 | 64 | 5 | 3.0 | 5.0 | 0.00 | 0.00 | 0.00 | 81 | 1015.8 |
| 20260508004037 | 64 | 15 | 3.0 | 5.0 | 0.00 | 0.00 | 0.00 | 81 | 1015.8 |
| 20260508003537 | 64 | 20 | 2.0 | 5.0 | 0.00 | 0.00 | 0.00 | 81 | 1015.8 |
| 20260508003048 | 64 | 346 | 3.0 | 5.0 | 0.00 | 0.00 | 0.00 | 81 | 1015.7 |
| 20260508002537 | 64 | 9 | 2.0 | 8.0 | 0.00 | 0.00 | 0.00 | 80 | 1015.6 |
| 20260508002038 | 64 | 360 | 3.0 | 8.0 | 0.00 | 0.00 | 0.00 | 80 | 1015.5 |
| 20260508001555 | 64 | 333 | 4.0 | 8.0 | 0.00 | 0.00 | 0.00 | 80 | 1015.7 |
| 20260508001036 | 64 | 355 | 3.0 | 9.0 | 0.00 | 0.00 | 0.00 | 80 | 1015.8 |
| 20260508000538 | 65 | 360 | 4.0 | 9.0 | 0.00 | 0.00 | 0.00 | 80 | 1015.7 |
| 20260508000053 | 65 | 5 | 3.0 | 8.0 | 0.00 | 0.00 | 0.00 | 80 | 1015.7 |
| 20260507235537 | 65 | 9 | 4.0 | 8.0 | 0.00 | 0.00 | 0.00 | 80 | 1015.7 |
| 20260507235037 | 65 | 352 | 4.0 | 9.0 | 0.00 | 0.00 | 0.00 | 80 | 1015.8 |
| 20260507234547 | 65 | 360 | 6.0 | 9.0 | 0.00 | 0.00 | 0.00 | 80 | 1015.4 |
| 20260507234037 | 65 | 336 | 5.0 | 8.0 | 0.00 | 0.00 | 0.00 | 80 | 1015.5 |
| 20260507233537 | 65 | 360 | 4.0 | 7.0 | 0.00 | 0.00 | 0.00 | 80 | 1015.5 |
| 20260507233053 | 65 | 25 | 2.0 | 4.0 | 0.00 | 0.00 | 0.00 | 80 | 1015.3 |
| 20260507232536 | 65 | 14 | 2.0 | 5.0 | 0.00 | 0.00 | 0.00 | 80 | 1015.4 |
| 20260507232037 | 65 | 338 | 2.0 | 8.0 | 0.00 | 0.00 | 0.00 | 80 | 1015.6 |
| 20260507231548 | 65 | 360 | 4.0 | 9.0 | 0.00 | 0.00 | 0.00 | 80 | 1015.7 |
| 20260507231037 | 65 | 360 | 4.0 | 9.0 | 0.00 | 0.00 | 0.00 | 80 | 1015.7 |
| 20260507230537 | 65 | 346 | 6.0 | 9.0 | 0.00 | 0.00 | 0.00 | 81 | 1015.9 |
| 20260507230053 | 65 | 338 | 3.0 | 5.0 | 0.00 | 0.00 | 0.00 | 82 | 1015.8 |
| 20260507225537 | 64 | 338 | 0.0 | 5.0 | 0.00 | 0.00 | 0.00 | 81 | 1015.8 |
| 20260507225037 | 64 | 338 | 2.0 | 9.0 | 0.00 | 0.00 | 0.00 | 81 | 1016.0 |
| 20260507224551 | 64 | 350 | 3.0 | 9.0 | 0.00 | 0.00 | 0.00 | 81 | 1015.9 |
| 20260507224038 | 65 | 335 | 4.0 | 11.0 | 0.00 | 0.00 | 0.00 | 81 | 1015.8 |
| 20260507223542 | 65 | 351 | 4.0 | 11.0 | 0.00 | 0.00 | 0.00 | 80 | 1015.8 |
| 20260507223050 | 65 | 322 | 7.0 | 11.0 | 0.00 | 0.00 | 0.00 | 79 | 1016.0 |
| 20260507222538 | 65 | 350 | 3.0 | 6.0 | 0.00 | 0.00 | 0.00 | 78 | 1015.9 |
| 20260507222037 | 65 | 336 | 2.0 | 8.0 | 0.00 | 0.00 | 0.00 | 77 | 1015.9 |
| 20260507221543 | 65 | 336 | 2.0 | 8.0 | 0.00 | 0.00 | 0.00 | 77 | 1016.1 |
| 20260507221037 | 65 | 329 | 4.0 | 8.0 | 0.00 | 0.00 | 0.00 | 77 | 1016.2 |
| 20260507220536 | 66 | 349 | 3.0 | 9.0 | 0.00 | 0.00 | 0.00 | 76 | 1016.1 |
| 20260507220052 | 66 | 16 | 3.0 | 9.0 | 0.00 | 0.00 | 0.00 | 76 | 1015.9 |
| 20260507215538 | 66 | 5 | 5.0 | 10.0 | 0.00 | 0.00 | 0.00 | 75 | 1015.9 |
| 20260507215039 | 66 | 342 | 4.0 | 10.0 | 0.00 | 0.00 | 0.00 | 75 | 1015.9 |
| 20260507214549 | 67 | 355 | 6.0 | 10.0 | 0.00 | 0.00 | 0.00 | 73 | 1015.7 |
| 20260507214038 | 67 | 5 | 5.0 | 9.0 | 0.00 | 0.00 | 0.00 | 72 | 1015.5 |
| 20260507213537 | 67 | 24 | 5.0 | 8.0 | 0.00 | 0.00 | 0.00 | 72 | 1015.8 |
| 20260507213055 | 67 | 57 | 3.0 | 8.0 | 0.00 | 0.00 | 0.00 | 71 | 1015.9 |
| 20260507212537 | 68 | 360 | 4.0 | 10.0 | 0.00 | 0.00 | 0.00 | 71 | 1015.9 |
| 20260507212037 | 68 | 19 | 5.0 | 10.0 | 0.00 | 0.00 | 0.00 | 69 | 1015.8 |
| 20260507211554 | 68 | 337 | 5.0 | 9.0 | 0.00 | 0.00 | 0.00 | 69 | 1016.1 |